Back to catalog

OPS 4682 DEB

AlivePO
NORAD 51505·DEBRIS·🇺🇸 United States

Launched Apr 3, 1965 from Vandenberg Space Force Base

Loading…

Next Passes (next 24 hours)

TLE

FreshSource: Space-Track

Epoch: Sep 13, 2026, 06:43 UTC

1 51505U 65027GR  26256.28017793 -.00000443  00000-0 -15160-2 0  9992
2 51505  90.2514  14.0277 0031870  94.7599 265.7163 12.98962515357487

Track OPS 4682 DEB in real time with AllMySat

Download on the App Store